Regional Weather Roundup
Issued by NWS Binghamton, NY

Home | Current Version | Previous Version | Text Only | Print | Product List | Glossary On
Versions: 1 2 3 4 5 6 7 8 9 10 11 12 13 14 15 16 17 18 19 20 21 22 23 24 25 26 27 28 29 30 31 32 33 34 35 36 37 38 39 40 41 42 43 44 45 46 47 48 49 50
000
ASUS41 KBGM 310710
RWRBGM
RWRBGM
BINGHAMTON REGIONAL WEATHER ROUNDUP
NATIONAL WEATHER SERVICE BINGHAMTON NY
300 AM EDT FRI JUL 31 2015

Note: "fair" indicates few or no clouds below 12,000 feet with no
significant weather and/or obstructions to visibility.

* = Station(s) that does not report precipitation, such as rain,
snow, etc, also no thunder or fog.

!NYZ009-015>018-022>025-036-037-044>046-055>057-062-310800
...CENTRAL NEW YORK...

CITY           SKY/WX    TMP DP  RH WIND       PRES   REMARKS
BINGHAMTON     CLEAR     63  55  75 SW6       29.91S
CORTLAND       FAIR      61  59  94 CALM      29.90S
DANSVILLE      CLEAR     65  58  78 S7        29.90S
ELMIRA         CLEAR     61  59  93 W3        29.89F
ITHACA         CLEAR     68  57  67 VRB3      29.90S
HORNELL          N/A     59  55  88 CALM      29.95S
MONTICELLO     CLEAR     63  59  88 W5        29.91S
NORWICH        CLEAR     61  59  94 CALM      29.89S
ONEONTA        PTCLDY    63  55  77 W3        29.90S
PENN YAN       CLEAR     66  59  78 S6        29.88F
ROME           CLEAR     62  60  93 CALM      29.84F
SIDNEY         PTCLDY    61  61 100 W3        29.89S
SYRACUSE       PTCLDY    71  61  70 SW10      29.82F
$$

!PAZ038>040-043-044-047-048-072-310800
...NORTHEAST PENNSYLVANIA...

CITY           SKY/WX    TMP DP  RH WIND       PRES   REMARKS
HAZLETON       CLEAR     59  55  88 CALM      29.97S
SCRANTON       CLEAR     63  59  87 S3        29.91S
$$
&&
KEY
WCI = WIND CHILL INDEX
VSB = VISIBILITY
HX  = HEAT INDEX
$$


USA.gov is the U.S. government's official web portal to all federal, state and local government web resources and services.